Back to catalog

COSMOS 1058

AliveMilitaryLEO
NORAD 11135·PAYLOAD·🇷🇺 Russia

Launched Dec 5, 1978 from Plesetsk Cosmodrome

Loading…

Next Passes (next 24 hours)

TLE

FreshSource: Space-Track

Epoch: Sep 14, 2026, 12:55 UTC

1 11135U 78109H   26257.53841844 -.00000014  00000-0  11398-4 0  9997
2 11135  74.0145 284.6684 0035737 111.4266  42.6950 12.39504311161731

Track COSMOS 1058 in real time with AllMySat

Download on the App Store